Location: ????????
(55.5667°N, 37.5833°E)
Time: 14:35:37
(UTC+00:00)

Cosmos 372 Rocket - Pass Details

Date: 14 April 2026
Orbit: 733 x 762 km, 74.1° (Epoch: 17 May)

Event Time Altitude Azimuth Distance (km) Brightness Sun altitude
Rises 17:02:41 0° 209° (SSW) 3,214 7.3 -4.7°
Reaches altitude 10° 17:05:03 10° 211° (SSW) 2,293 6.6 -5.0°
Maximum altitude 17:10:16 80° 298° (WNW) 780 4.2 -5.7°
Drops below altitude 10° 17:15:32 10° 27° (NNE) 2,307 6.5 -6.3°
Sets 17:17:55 0° 28° (NNE) 3,235 7.2 -6.6°
